CW5532 Fals ES current weather conditions

sailwx.info

Wind from 201

Air temperature 23.3° C
Dewpoint 19.5° C

Last reported at 2020-Aug-05 21:37 UTC.
Time now 2020-Aug-05 22:45 UTC

Location: N 41°45' E 001°43'.
View on Google Maps.

See reports from other nearby stations

  
Tides and Currents Weather Stations Pressure Air Temp Water Temp Dewpoint Dewpoint Depression Visibility Wind Speed Wind Dir Waves Ship Positions
date/time (UTC)wind fromknots sea level pressurealtimeterstation pressurevisibilityair tempwater tempwave heightnotes
2020-Aug-05 21:37 201 23.3
2020-Aug-05 21:32 201 23.3
2020-Aug-05 21:07 179 23.3
2020-Aug-05 21:02 166 23.9
2020-Aug-05 20:37 123 23.9
2020-Aug-05 20:07 100 24.4
2020-Aug-05 20:02 103 24.4
2020-Aug-05 19:37 105 24.4
2020-Aug-05 19:32 105 25.0
2020-Aug-05 19:07 165 25.6
2020-Aug-05 18:32 190 0 gusting 8 26.7
2020-Aug-05 18:07 135 27.8
2020-Aug-05 18:02 128 27.8
2020-Aug-05 17:32 125 0 gusting 10 28.9
2020-Aug-05 17:07 138 4 gusting 10 29.4
2020-Aug-05 17:02 160 0 gusting 10 29.4
2020-Aug-05 16:32 141 2 gusting 11 30.0
2020-Aug-05 16:02 139 1 gusting 10 31.1
2020-Aug-05 15:37 117 2 gusting 10 31.1
2020-Aug-05 15:07 094 6 gusting 13 31.1
2020-Aug-05 15:02 110 2 gusting 11 31.1
2020-Aug-05 14:37 103 6 gusting 12 31.1
2020-Aug-05 14:32 077 6 gusting 17 31.1
2020-Aug-05 14:02 122 4 gusting 12 31.1
2020-Aug-05 13:37 092 6 gusting 12 31.7
2020-Aug-05 13:07 119 1 gusting 11 31.7
2020-Aug-05 13:02 261 2 gusting 11 31.7
2020-Aug-05 12:37 206 1 gusting 10 30.6
2020-Aug-05 12:07 187 30.6
2020-Aug-05 11:37 228 0 gusting 6 29.4
2020-Aug-05 11:32 185 29.4
2020-Aug-05 11:07 174 28.9
2020-Aug-05 11:02 130 0 gusting 6 28.9
2020-Aug-05 10:37 117 1 gusting 6 27.8
2020-Aug-05 10:32 181 0 gusting 6 27.8
2020-Aug-05 10:07 157 0 gusting 5 26.7
2020-Aug-05 10:02 149 1 gusting 6 26.7
2020-Aug-05 09:37 089 0 gusting 5 26.1
2020-Aug-05 09:32 112 26.1
2020-Aug-05 09:07 110 0 gusting 4 25.6
2020-Aug-05 09:02 076 25.6
2020-Aug-05 08:32 067 24.4
2020-Aug-05 08:02 092 23.3
2020-Aug-05 07:37 062 22.2
2020-Aug-05 07:32 061 0 gusting 2 22.2
2020-Aug-05 07:07 173 21.7
2020-Aug-05 07:02 175 21.7
2020-Aug-05 06:37 234 20.0
2020-Aug-05 06:32 234 20.0
2020-Aug-05 06:07 234 18.3
2020-Aug-05 06:02 235 17.8
2020-Aug-05 05:32 243 17.2
2020-Aug-05 05:07 253 16.7
2020-Aug-05 05:02 252 16.7
2020-Aug-05 04:37 256 16.1
2020-Aug-05 04:32 256 16.1
2020-Aug-05 04:07 257 16.1
2020-Aug-05 03:32 254 16.1
2020-Aug-05 03:07 254 16.1
2020-Aug-05 03:02 246 16.1
2020-Aug-05 02:02 230 16.1
2020-Aug-05 01:07 230 16.7
2020-Aug-05 01:02 230 16.7
2020-Aug-05 00:07 240 17.8
2020-Aug-05 00:02 235 17.8
2020-Aug-04 23:07 220 18.3
2020-Aug-04 23:02 180 18.3
2020-Aug-04 22:02 179 19.4
2020-Aug-04 21:32 173 20.0
2020-Aug-04 21:02 173 20.6
2020-Aug-04 20:37 173 21.7
2020-Aug-04 20:32 173 21.7
2020-Aug-04 20:07 173 22.2
2020-Aug-04 19:37 117 22.8
2020-Aug-04 19:32 117 0 gusting 6 22.8
2020-Aug-04 19:02 103 24.4
2020-Aug-04 18:32 165 25.0
2020-Aug-04 18:07 099 26.1
2020-Aug-04 18:02 147 0 gusting 7 26.1
2020-Aug-04 17:07 148 27.8
2020-Aug-04 17:02 141 0 gusting 11 27.8
2020-Aug-04 16:37 148 2 gusting 8 28.3
2020-Aug-04 16:32 121 4 gusting 12 28.3
2020-Aug-04 16:07 103 2 gusting 10 29.4
2020-Aug-04 15:07 116 0 gusting 7 30.6
2020-Aug-04 15:02 145 0 gusting 11 30.6
2020-Aug-04 14:37 124 29.4
2020-Aug-04 14:07 091 1 gusting 6 31.1
2020-Aug-04 14:02 267 31.1
2020-Aug-04 13:32 037 30.6
2020-Aug-04 13:02 291 0 gusting 13 30.6
2020-Aug-04 12:37 249 30.6
2020-Aug-04 12:32 228 1 gusting 10 30.6
2020-Aug-04 12:02 165 2 gusting 7 27.8
2020-Aug-04 11:37 100 6 gusting 11 27.8
2020-Aug-04 11:32 130 0 gusting 7 28.3
2020-Aug-04 11:07 196 0 gusting 4 26.7
2020-Aug-04 11:02 146 0 gusting 13 26.7
2020-Aug-04 10:07 110 1 gusting 6 26.1
2020-Aug-04 10:02 067 4 gusting 8 26.1
2020-Aug-04 09:37 110 0 gusting 6 26.1
2020-Aug-04 09:32 160 0 gusting 5 26.1
2020-Aug-04 09:07 267 26.1
2020-Aug-04 09:02 267 26.1
2020-Aug-04 08:37 273 24.4
2020-Aug-04 08:32 273 23.9
2020-Aug-04 08:07 249 22.8
2020-Aug-04 07:37 246 3 gusting 10 21.1
2020-Aug-04 07:32 244 1 gusting 11 20.6
2020-Aug-04 07:02 258 2 gusting 12 20.0
2020-Aug-04 06:37 257 4 gusting 12 18.9
2020-Aug-04 06:07 269 5 gusting 13 18.3
2020-Aug-04 05:37 254 5 gusting 11 17.8
2020-Aug-04 05:32 263 1 gusting 10 17.8
2020-Aug-04 05:02 257 18.3
2020-Aug-04 04:37 261 18.3
2020-Aug-04 04:32 257 0 gusting 8 18.9
2020-Aug-04 04:07 258 18.9
2020-Aug-04 04:02 258 18.9
2020-Aug-04 03:37 266 18.9
2020-Aug-04 02:37 242 19.4
2020-Aug-04 02:32 166 19.4
2020-Aug-04 02:07 138 18.9
2020-Aug-04 02:02 138 18.9
2020-Aug-04 01:32 138 19.4
2020-Aug-04 01:07 138 20.0
2020-Aug-04 01:02 138 20.0
2020-Aug-04 00:37 138 20.6
2020-Aug-04 00:32 138 20.6
2020-Aug-04 00:07 138 21.1
2020-Aug-04 00:02 138 21.1
2020-Aug-03 23:37 123 21.7
2020-Aug-03 23:07 118 21.7
2020-Aug-03 22:37 118 21.7